| time (UTC) | temp C | wind direction | speed KPH | gust KPH | rain 1hr cm | rain 24hr cm | rain mn cm | humidity % | barometer mb |
| 20260507112626 | 11 | 311 | 0.0 | 0.0 | 0.00 | 0.00 | 0.00 | 80 | 1021.9 |
| 20260507112122 | 11 | 307 | 1.6 | 3.2 | 0.00 | 0.00 | 0.00 | 80 | 1022.0 |
| 20260507111620 | 11 | 294 | 0.0 | 0.0 | 0.00 | 0.00 | 0.00 | 80 | 1021.9 |
| 20260507111116 | 11 | 293 | 0.0 | 0.0 | 0.00 | 0.00 | 0.00 | 80 | 1022.0 |
| 20260507110612 | 11 | 300 | 0.0 | 0.0 | 0.00 | 0.00 | 0.00 | 80 | 1022.0 |
| 20260507110109 | 11 | 297 | 0.0 | 1.6 | 0.00 | 0.00 | 0.00 | 80 | 1022.1 |
| 20260507105606 | 11 | 312 | 0.0 | 0.0 | 0.00 | 0.00 | 0.00 | 79 | 1022.0 |
| 20260507105102 | 11 | 284 | 1.6 | 1.6 | 0.00 | 0.00 | 0.00 | 80 | 1022.1 |
| 20260507104600 | 11 | 303 | 0.0 | 0.0 | 0.00 | 0.00 | 0.00 | 79 | 1022.0 |
| 20260507104056 | 11 | 318 | 0.0 | 0.0 | 0.00 | 0.00 | 0.00 | 80 | 1022.1 |
| 20260507103552 | 11 | 208 | 1.6 | 3.2 | 0.00 | 0.00 | 0.00 | 81 | 1021.9 |
| 20260507103049 | 11 | 297 | 0.0 | 0.0 | 0.00 | 0.00 | 0.00 | 81 | 1022.1 |
| 20260507102545 | 11 | 300 | 0.0 | 1.6 | 0.00 | 0.00 | 0.00 | 81 | 1022.2 |
| 20260507102042 | 12 | 306 | 0.0 | 0.0 | 0.00 | 0.00 | 0.00 | 80 | 1022.2 |
| 20260507101537 | 12 | 296 | 0.0 | 0.0 | 0.00 | 0.00 | 0.00 | 80 | 1022.3 |
| 20260507101033 | 12 | 307 | 0.0 | 0.0 | 0.00 | 0.00 | 0.00 | 80 | 1022.0 |
| 20260507100531 | 12 | 304 | 0.0 | 0.0 | 0.00 | 0.00 | 0.00 | 79 | 1022.2 |
| 20260507100029 | 12 | 307 | 0.0 | 0.0 | 0.00 | 0.00 | 0.00 | 79 | 1022.4 |
| 20260507095527 | 12 | 308 | 0.0 | 1.6 | 0.00 | 0.00 | 0.00 | 80 | 1022.2 |
| 20260507095023 | 12 | 299 | 0.0 | 0.0 | 0.00 | 0.00 | 0.00 | 80 | 1022.3 |
| 20260507094519 | 12 | 338 | 0.0 | 1.6 | 0.00 | 0.00 | 0.00 | 79 | 1022.3 |
| 20260507094016 | 12 | 304 | 0.0 | 0.0 | 0.00 | 0.00 | 0.00 | 79 | 1022.4 |
| 20260507093514 | 12 | 292 | 0.0 | 1.6 | 0.00 | 0.00 | 0.00 | 79 | 1022.6 |
| 20260507093013 | 12 | 301 | 0.0 | 1.6 | 0.00 | 0.00 | 0.00 | 79 | 1022.5 |
| 20260507092509 | 12 | 296 | 0.0 | 0.0 | 0.00 | 0.00 | 0.00 | 79 | 1022.6 |
| 20260507092005 | 12 | 299 | 0.0 | 0.0 | 0.00 | 0.00 | 0.00 | 79 | 1022.7 |
| 20260507091502 | 12 | 298 | 0.0 | 0.0 | 0.00 | 0.00 | 0.00 | 79 | 1022.6 |
| 20260507090958 | 12 | 300 | 1.6 | 1.6 | 0.00 | 0.00 | 0.00 | 79 | 1022.7 |
| 20260507090454 | 12 | 323 | 0.0 | 0.0 | 0.00 | 0.00 | 0.00 | 79 | 1022.5 |
| 20260507085950 | 12 | 302 | 1.6 | 1.6 | 0.00 | 0.00 | 0.00 | 79 | 1022.7 |
| 20260507085448 | 12 | 292 | 0.0 | 1.6 | 0.00 | 0.00 | 0.00 | 79 | 1022.6 |
| 20260507084944 | 12 | 297 | 0.0 | 0.0 | 0.00 | 0.00 | 0.00 | 79 | 1022.7 |
| 20260507084441 | 12 | 298 | 0.0 | 0.0 | 0.00 | 0.00 | 0.00 | 79 | 1022.5 |
| 20260507083938 | 12 | 291 | 0.0 | 1.6 | 0.00 | 0.00 | 0.00 | 79 | 1022.5 |
| 20260507083435 | 12 | 302 | 0.0 | 0.0 | 0.00 | 0.00 | 0.00 | 80 | 1022.6 |
| 20260507082931 | 12 | 302 | 0.0 | 0.0 | 0.00 | 0.00 | 0.00 | 80 | 1022.6 |
| 20260507082427 | 12 | 311 | 1.6 | 1.6 | 0.00 | 0.00 | 0.00 | 81 | 1022.7 |
| 20260507081924 | 12 | 297 | 0.0 | 0.0 | 0.00 | 0.00 | 0.00 | 81 | 1022.8 |
| 20260507081420 | 12 | 297 | 0.0 | 0.0 | 0.00 | 0.00 | 0.00 | 80 | 1022.7 |
| 20260507080917 | 12 | 297 | 0.0 | 0.0 | 0.00 | 0.00 | 0.00 | 81 | 1022.6 |
| 20260507080414 | 12 | 288 | 0.0 | 1.6 | 0.00 | 0.00 | 0.00 | 80 | 1022.7 |
| 20260507075909 | 12 | 298 | 0.0 | 0.0 | 0.00 | 0.00 | 0.00 | 81 | 1022.7 |
| 20260507075405 | 12 | 305 | 0.0 | 0.0 | 0.00 | 0.00 | 0.00 | 81 | 1022.8 |
| 20260507074902 | 12 | 304 | 1.6 | 1.6 | 0.00 | 0.00 | 0.00 | 82 | 1022.5 |
| 20260507074358 | 12 | 312 | 0.0 | 0.0 | 0.00 | 0.00 | 0.00 | 81 | 1022.7 |
| 20260507073856 | 12 | 300 | 0.0 | 0.0 | 0.00 | 0.00 | 0.00 | 81 | 1022.7 |
| 20260507073352 | 12 | 301 | 0.0 | 1.6 | 0.00 | 0.00 | 0.00 | 81 | 1022.8 |
| 20260507072849 | 12 | 305 | 0.0 | 0.0 | 0.00 | 0.00 | 0.00 | 81 | 1022.8 |
| 20260507072347 | 12 | 315 | 0.0 | 0.0 | 0.00 | 0.00 | 0.00 | 81 | 1022.5 |
| 20260507071844 | 12 | 306 | 0.0 | 0.0 | 0.00 | 0.00 | 0.00 | 81 | 1022.7 |
| 20260507071342 | 12 | 298 | 0.0 | 0.0 | 0.00 | 0.00 | 0.00 | 80 | 1022.5 |
| 20260507070837 | 12 | 23 | 1.6 | 1.6 | 0.00 | 0.00 | 0.00 | 80 | 1022.6 |
| 20260507070335 | 12 | 253 | 1.6 | 3.2 | 0.00 | 0.00 | 0.00 | 80 | 1022.5 |
| 20260507065832 | 12 | 303 | 0.0 | 0.0 | 0.00 | 0.00 | 0.00 | 80 | 1022.6 |
| 20260507065329 | 12 | 1 | 1.6 | 1.6 | 0.00 | 0.00 | 0.00 | 80 | 1022.3 |
| 20260507064826 | 12 | 308 | 0.0 | 1.6 | 0.00 | 0.00 | 0.00 | 81 | 1022.4 |
| 20260507064324 | 12 | 307 | 0.0 | 0.0 | 0.00 | 0.00 | 0.00 | 81 | 1022.6 |
| 20260507063822 | 12 | 306 | 0.0 | 0.0 | 0.00 | 0.00 | 0.00 | 80 | 1022.4 |
| 20260507063318 | 12 | 303 | 0.0 | 0.0 | 0.00 | 0.00 | 0.00 | 81 | 1022.5 |
| 20260507062815 | 12 | 289 | 0.0 | 1.6 | 0.00 | 0.00 | 0.00 | 81 | 1022.3 |
| 20260507062312 | 12 | 286 | 1.6 | 1.6 | 0.00 | 0.00 | 0.00 | 81 | 1022.6 |
| 20260507061810 | 12 | 266 | 1.6 | 1.6 | 0.00 | 0.00 | 0.00 | 81 | 1022.6 |
| 20260507061308 | 12 | 284 | 0.0 | 1.6 | 0.00 | 0.00 | 0.00 | 82 | 1022.5 |
| 20260507060806 | 12 | 305 | 0.0 | 0.0 | 0.00 | 0.00 | 0.00 | 82 | 1022.6 |
| 20260507060302 | 12 | 290 | 3.2 | 3.2 | 0.00 | 0.00 | 0.00 | 82 | 1022.6 |
| 20260507055759 | 12 | 290 | 1.6 | 3.2 | 0.00 | 0.00 | 0.00 | 82 | 1022.6 |
| 20260507055254 | 12 | 319 | 1.6 | 1.6 | 0.00 | 0.00 | 0.00 | 82 | 1022.6 |
| 20260507054750 | 12 | 287 | 1.6 | 1.6 | 0.00 | 0.00 | 0.00 | 82 | 1022.4 |
| 20260507054247 | 12 | 303 | 0.0 | 1.6 | 0.00 | 0.00 | 0.00 | 82 | 1022.6 |
| 20260507053744 | 13 | 320 | 1.6 | 1.6 | 0.00 | 0.00 | 0.00 | 82 | 1022.5 |
| 20260507053242 | 13 | 345 | 0.0 | 1.6 | 0.00 | 0.00 | 0.00 | 82 | 1022.5 |
| 20260507052741 | 13 | 325 | 1.6 | 1.6 | 0.00 | 0.00 | 0.00 | 81 | 1022.6 |
| 20260507052237 | 13 | 10 | 1.6 | 1.6 | 0.00 | 0.00 | 0.00 | 81 | 1022.3 |
| 20260507051735 | 13 | 275 | 1.6 | 3.2 | 0.00 | 0.00 | 0.00 | 81 | 1022.4 |
| 20260507051231 | 13 | 317 | 3.2 | 3.2 | 0.00 | 0.00 | 0.00 | 81 | 1022.6 |
| 20260507050728 | 13 | 292 | 0.0 | 1.6 | 0.00 | 0.00 | 0.00 | 81 | 1022.3 |
| 20260507050226 | 13 | 109 | 1.6 | 1.6 | 0.00 | 0.00 | 0.00 | 80 | 1022.5 |
| 20260507045722 | 13 | 206 | 1.6 | 3.2 | 0.00 | 0.00 | 0.00 | 80 | 1022.4 |
| 20260507045218 | 13 | 310 | 1.6 | 1.6 | 0.00 | 0.00 | 0.00 | 80 | 1022.6 |
| 20260507044716 | 13 | 294 | 1.6 | 3.2 | 0.00 | 0.00 | 0.00 | 80 | 1022.6 |
| 20260507044212 | 13 | 1 | 0.0 | 1.6 | 0.00 | 0.00 | 0.00 | 80 | 1022.4 |
| 20260507043708 | 13 | 282 | 1.6 | 3.2 | 0.00 | 0.00 | 0.00 | 80 | 1022.6 |
| 20260507043205 | 13 | 325 | 3.2 | 4.8 | 0.00 | 0.00 | 0.00 | 80 | 1022.3 |
| 20260507042702 | 13 | 305 | 3.2 | 4.8 | 0.00 | 0.00 | 0.00 | 79 | 1022.2 |
| 20260507042156 | 13 | 328 | 0.0 | 1.6 | 0.00 | 0.00 | 0.00 | 79 | 1022.2 |
| 20260507041654 | 14 | 310 | 1.6 | 3.2 | 0.00 | 0.00 | 0.00 | 79 | 1022.2 |
| 20260507041150 | 14 | 308 | 1.6 | 1.6 | 0.00 | 0.00 | 0.00 | 79 | 1022.2 |
| 20260507040648 | 14 | 290 | 0.0 | 0.0 | 0.00 | 0.00 | 0.00 | 79 | 1022.3 |
| 20260507040144 | 14 | 267 | 3.2 | 3.2 | 0.00 | 0.00 | 0.00 | 79 | 1022.3 |
| 20260507035639 | 14 | 268 | 1.6 | 3.2 | 0.00 | 0.00 | 0.00 | 79 | 1021.9 |
| 20260507035136 | 14 | 300 | 1.6 | 3.2 | 0.00 | 0.00 | 0.00 | 78 | 1021.9 |
| 20260507034633 | 15 | 308 | 3.2 | 3.2 | 0.00 | 0.00 | 0.00 | 78 | 1021.8 |
| 20260507034131 | 15 | 296 | 0.0 | 0.0 | 0.00 | 0.00 | 0.00 | 78 | 1021.9 |
| 20260507033629 | 15 | 151 | 3.2 | 3.2 | 0.00 | 0.00 | 0.00 | 78 | 1021.8 |
| 20260507033126 | 15 | 296 | 1.6 | 3.2 | 0.00 | 0.00 | 0.00 | 78 | 1021.8 |
| 20260507032623 | 15 | 332 | 0.0 | 0.0 | 0.00 | 0.00 | 0.00 | 79 | 1021.6 |
| 20260507032119 | 15 | 40 | 0.0 | 1.6 | 0.00 | 0.00 | 0.00 | 79 | 1021.3 |
| 20260507031616 | 15 | 297 | 0.0 | 0.0 | 0.00 | 0.00 | 0.00 | 79 | 1021.3 |
| 20260507031112 | 15 | 325 | 1.6 | 1.6 | 0.00 | 0.00 | 0.00 | 78 | 1021.4 |
| 20260507030609 | 15 | 299 | 0.0 | 1.6 | 0.00 | 0.00 | 0.00 | 78 | 1021.3 |
| 20260507030107 | 15 | 298 | 1.6 | 1.6 | 0.00 | 0.00 | 0.00 | 79 | 1021.2 |
| 20260507025604 | 15 | 301 | 0.0 | 0.0 | 0.00 | 0.00 | 0.00 | 79 | 1021.1 |
| 20260507025101 | 15 | 290 | 0.0 | 0.0 | 0.00 | 0.00 | 0.00 | 80 | 1021.1 |
| 20260507024559 | 15 | 296 | 0.0 | 0.0 | 0.00 | 0.00 | 0.00 | 79 | 1020.9 |
| 20260507024056 | 15 | 310 | 0.0 | 0.0 | 0.00 | 0.00 | 0.00 | 78 | 1021.0 |
| 20260507023551 | 16 | 286 | 0.0 | 1.6 | 0.00 | 0.00 | 0.00 | 77 | 1021.0 |
| 20260507023049 | 16 | 299 | 0.0 | 0.0 | 0.00 | 0.00 | 0.00 | 77 | 1021.1 |
| 20260507022546 | 16 | 324 | 1.6 | 1.6 | 0.00 | 0.00 | 0.00 | 77 | 1021.1 |
| 20260507022041 | 16 | 298 | 0.0 | 0.0 | 0.00 | 0.00 | 0.00 | 76 | 1021.1 |
| 20260507021537 | 16 | 293 | 0.0 | 0.0 | 0.00 | 0.00 | 0.00 | 75 | 1021.0 |
| 20260507021034 | 17 | 290 | 1.6 | 1.6 | 0.00 | 0.00 | 0.00 | 74 | 1021.2 |
| 20260507020531 | 17 | 257 | 0.0 | 0.0 | 0.00 | 0.00 | 0.00 | 74 | 1021.4 |
| 20260507020028 | 17 | 323 | 0.0 | 1.6 | 0.00 | 0.00 | 0.00 | 74 | 1021.1 |
| 20260507015526 | 17 | 300 | 1.6 | 3.2 | 0.00 | 0.00 | 0.00 | 75 | 1020.8 |
| 20260507015023 | 17 | 290 | 0.0 | 0.0 | 0.00 | 0.00 | 0.00 | 74 | 1021.1 |
| 20260507014520 | 17 | 302 | 0.0 | 1.6 | 0.00 | 0.00 | 0.00 | 75 | 1021.0 |
| 20260507014015 | 17 | 297 | 3.2 | 4.8 | 0.00 | 0.00 | 0.00 | 74 | 1021.2 |
| 20260507013512 | 17 | 346 | 1.6 | 1.6 | 0.00 | 0.00 | 0.00 | 74 | 1020.9 |
| 20260507013010 | 17 | 292 | 1.6 | 1.6 | 0.00 | 0.00 | 0.00 | 73 | 1021.2 |
| 20260507012507 | 17 | 293 | 4.8 | 8.0 | 0.00 | 0.00 | 0.00 | 73 | 1020.9 |
| 20260507012003 | 17 | 294 | 1.6 | 3.2 | 0.00 | 0.00 | 0.00 | 72 | 1021.1 |
| 20260507011500 | 17 | 322 | 1.6 | 1.6 | 0.00 | 0.00 | 0.00 | 73 | 1021.0 |
| 20260507010956 | 18 | 302 | 1.6 | 1.6 | 0.00 | 0.00 | 0.00 | 72 | 1021.0 |
| 20260507010450 | 18 | 309 | 1.6 | 1.6 | 0.00 | 0.00 | 0.00 | 72 | 1020.9 |
| 20260507005948 | 18 | 264 | 3.2 | 4.8 | 0.00 | 0.00 | 0.00 | 72 | 1020.9 |
| 20260507005445 | 18 | 241 | 3.2 | 4.8 | 0.00 | 0.00 | 0.00 | 72 | 1020.9 |
| 20260507004941 | 18 | 280 | 1.6 | 1.6 | 0.00 | 0.00 | 0.00 | 71 | 1020.9 |
| 20260507004438 | 19 | 297 | 1.6 | 3.2 | 0.00 | 0.00 | 0.00 | 72 | 1020.8 |
| 20260507003936 | 19 | 301 | 1.6 | 1.6 | 0.00 | 0.00 | 0.00 | 72 | 1020.6 |
| 20260507003431 | 19 | 282 | 1.6 | 3.2 | 0.00 | 0.00 | 0.00 | 71 | 1020.6 |
| 20260507002926 | 20 | 293 | 1.6 | 1.6 | 0.00 | 0.00 | 0.00 | 71 | 1020.7 |
| 20260507002422 | 20 | 127 | 3.2 | 8.0 | 0.00 | 0.00 | 0.00 | 71 | 1020.6 |
| 20260507001920 | 20 | 299 | 1.6 | 3.2 | 0.00 | 0.00 | 0.00 | 70 | 1020.8 |
| 20260507001416 | 20 | 304 | 1.6 | 1.6 | 0.00 | 0.00 | 0.00 | 70 | 1020.6 |
| 20260507000914 | 20 | 289 | 0.0 | 1.6 | 0.00 | 0.00 | 0.00 | 71 | 1020.6 |
| 20260507000409 | 20 | 301 | 1.6 | 3.2 | 0.00 | 0.00 | 0.00 | 69 | 1020.5 |
| 20260506235905 | 20 | 312 | 3.2 | 3.2 | 0.00 | 0.00 | 0.00 | 68 | 1020.8 |
| 20260506235403 | 20 | 306 | 0.0 | 0.0 | 0.00 | 0.00 | 0.00 | 69 | 1020.6 |
| 20260506234858 | 20 | 298 | 0.0 | 1.6 | 0.00 | 0.00 | 0.00 | 67 | 1020.5 |
| 20260506234356 | 20 | 302 | 3.2 | 3.2 | 0.00 | 0.00 | 0.00 | 67 | 1020.5 |
| 20260506233853 | 20 | 100 | 1.6 | 3.2 | 0.00 | 0.00 | 0.00 | 66 | 1020.7 |
| 20260506233349 | 20 | 21 | 1.6 | 3.2 | 0.00 | 0.00 | 0.00 | 67 | 1020.8 |
| 20260506232846 | 20 | 304 | 0.0 | 1.6 | 0.00 | 0.00 | 0.00 | 67 | 1020.7 |
| 20260506232342 | 20 | 315 | 0.0 | 1.6 | 0.00 | 0.00 | 0.00 | 67 | 1020.5 |
| 20260506231838 | 20 | 313 | 0.0 | 0.0 | 0.00 | 0.00 | 0.00 | 69 | 1020.5 |
| 20260506231336 | 20 | 295 | 1.6 | 1.6 | 0.00 | 0.00 | 0.00 | 69 | 1020.5 |
| 20260506230833 | 20 | 307 | 3.2 | 3.2 | 0.00 | 0.00 | 0.00 | 67 | 1021.0 |
| 20260506230330 | 20 | 309 | 0.0 | 0.0 | 0.00 | 0.00 | 0.00 | 71 | 1021.0 |
| 20260506225826 | 19 | 1 | 1.6 | 1.6 | 0.00 | 0.00 | 0.00 | 68 | 1021.0 |
| 20260506225324 | 20 | 255 | 1.6 | 1.6 | 0.00 | 0.00 | 0.00 | 68 | 1021.0 |
| 20260506224821 | 20 | 302 | 1.6 | 1.6 | 0.00 | 0.00 | 0.00 | 71 | 1021.0 |
| 20260506224318 | 20 | 188 | 0.0 | 1.6 | 0.00 | 0.00 | 0.00 | 68 | 1021.0 |
| 20260506223814 | 20 | 307 | 1.6 | 3.2 | 0.00 | 0.00 | 0.00 | 68 | 1021.1 |
| 20260506223309 | 19 | 312 | 0.0 | 1.6 | 0.00 | 0.00 | 0.00 | 68 | 1021.2 |
| 20260506222807 | 19 | 321 | 0.0 | 0.0 | 0.00 | 0.00 | 0.00 | 69 | 1021.2 |
| 20260506222305 | 19 | 150 | 3.2 | 4.8 | 0.00 | 0.00 | 0.00 | 69 | 1021.2 |
| 20260506221800 | 19 | 336 | 1.6 | 1.6 | 0.00 | 0.00 | 0.00 | 70 | 1021.1 |
| 20260506221258 | 18 | 305 | 0.0 | 1.6 | 0.00 | 0.00 | 0.00 | 72 | 1021.2 |
| 20260506220755 | 19 | 301 | 3.2 | 3.2 | 0.00 | 0.00 | 0.00 | 71 | 1021.3 |
| 20260506220249 | 19 | 310 | 0.0 | 1.6 | 0.00 | 0.00 | 0.00 | 73 | 1021.5 |
| 20260506215747 | 19 | 304 | 1.6 | 1.6 | 0.00 | 0.00 | 0.00 | 72 | 1021.3 |
| 20260506215243 | 20 | 308 | 0.0 | 0.0 | 0.00 | 0.00 | 0.00 | 71 | 1021.2 |
| 20260506214739 | 20 | 309 | 0.0 | 1.6 | 0.00 | 0.00 | 0.00 | 73 | 1021.2 |
| 20260506214236 | 19 | 306 | 1.6 | 1.6 | 0.00 | 0.00 | 0.00 | 71 | 1021.0 |
| 20260506213735 | 18 | 351 | 1.6 | 1.6 | 0.00 | 0.00 | 0.00 | 72 | 1021.2 |
| 20260506213231 | 18 | 344 | 0.0 | 1.6 | 0.00 | 0.00 | 0.00 | 73 | 1021.4 |
| 20260506212729 | 18 | 302 | 1.6 | 1.6 | 0.00 | 0.00 | 0.00 | 73 | 1021.5 |
| 20260506212224 | 18 | 337 | 1.6 | 1.6 | 0.00 | 0.00 | 0.00 | 73 | 1021.5 |
| 20260506211719 | 18 | 358 | 0.0 | 0.0 | 0.00 | 0.00 | 0.00 | 76 | 1021.6 |
| 20260506211216 | 18 | 24 | 0.0 | 1.6 | 0.00 | 0.00 | 0.00 | 75 | 1021.9 |
| 20260506210713 | 18 | 217 | 1.6 | 3.2 | 0.00 | 0.00 | 0.00 | 75 | 1021.6 |
| 20260506210210 | 17 | 299 | 0.0 | 1.6 | 0.00 | 0.00 | 0.00 | 75 | 1021.6 |
| 20260506205707 | 18 | 306 | 0.0 | 0.0 | 0.00 | 0.00 | 0.00 | 77 | 1022.0 |
| 20260506205202 | 18 | 232 | 1.6 | 3.2 | 0.00 | 0.00 | 0.00 | 73 | 1021.9 |
| 20260506204659 | 18 | 340 | 0.0 | 1.6 | 0.00 | 0.00 | 0.00 | 74 | 1021.8 |
| 20260506204156 | 18 | 299 | 0.0 | 0.0 | 0.00 | 0.00 | 0.00 | 72 | 1021.8 |
| 20260506203655 | 18 | 334 | 1.6 | 1.6 | 0.00 | 0.00 | 0.00 | 74 | 1021.8 |
| 20260506203151 | 18 | 330 | 0.0 | 1.6 | 0.00 | 0.00 | 0.00 | 77 | 1021.8 |
| 20260506202649 | 18 | 92 | 3.2 | 3.2 | 0.00 | 0.00 | 0.00 | 75 | 1021.8 |
| 20260506202145 | 18 | 313 | 0.0 | 1.6 | 0.00 | 0.00 | 0.00 | 76 | 1021.8 |
| 20260506201642 | 18 | 313 | 4.8 | 4.8 | 0.00 | 0.00 | 0.00 | 73 | 1021.8 |
| 20260506201138 | 19 | 310 | 0.0 | 0.0 | 0.00 | 0.00 | 0.00 | 73 | 1021.9 |
| 20260506200635 | 18 | 310 | 0.0 | 0.0 | 0.00 | 0.00 | 0.00 | 74 | 1021.8 |
| 20260506200132 | 18 | 305 | 0.0 | 0.0 | 0.00 | 0.00 | 0.00 | 75 | 1021.9 |
| 20260506195629 | 17 | 300 | 0.0 | 0.0 | 0.00 | 0.00 | 0.00 | 77 | 1021.9 |
| 20260506195125 | 18 | 307 | 1.6 | 1.6 | 0.00 | 0.00 | 0.00 | 76 | 1022.1 |
| 20260506194623 | 17 | 302 | 0.0 | 1.6 | 0.00 | 0.00 | 0.00 | 76 | 1022.1 |
| 20260506194119 | 17 | 316 | 0.0 | 0.0 | 0.00 | 0.00 | 0.00 | 77 | 1022.2 |
| 20260506193617 | 17 | 300 | 1.6 | 3.2 | 0.00 | 0.00 | 0.00 | 78 | 1022.2 |
| 20260506193114 | 17 | 302 | 0.0 | 0.0 | 0.00 | 0.00 | 0.00 | 79 | 1022.3 |
| 20260506192611 | 17 | 310 | 1.6 | 3.2 | 0.00 | 0.00 | 0.00 | 78 | 1022.1 |
| 20260506192106 | 17 | 304 | 0.0 | 0.0 | 0.00 | 0.00 | 0.00 | 78 | 1022.2 |
| 20260506191603 | 16 | 310 | 1.6 | 1.6 | 0.00 | 0.00 | 0.00 | 79 | 1022.0 |
| 20260506191059 | 16 | 326 | 0.0 | 0.0 | 0.00 | 0.00 | 0.00 | 81 | 1022.0 |
| 20260506190557 | 16 | 324 | 0.0 | 0.0 | 0.00 | 0.00 | 0.00 | 79 | 1022.1 |
| 20260506190053 | 16 | 316 | 1.6 | 3.2 | 0.00 | 0.00 | 0.00 | 82 | 1022.2 |
| 20260506185551 | 16 | 344 | 1.6 | 1.6 | 0.00 | 0.00 | 0.00 | 81 | 1022.1 |
| 20260506185047 | 16 | 0 | 0.0 | 0.0 | 0.00 | 0.00 | 0.00 | 81 | 1022.0 |
| 20260506184545 | 16 | 297 | 0.0 | 1.6 | 0.00 | 0.00 | 0.00 | 82 | 1022.1 |
| 20260506184042 | 16 | 349 | 1.6 | 1.6 | 0.00 | 0.00 | 0.00 | 81 | 1022.1 |
| 20260506183537 | 16 | 300 | 0.0 | 0.0 | 0.00 | 0.00 | 0.00 | 81 | 1022.0 |
| 20260506183034 | 16 | 309 | 1.6 | 1.6 | 0.00 | 0.00 | 0.00 | 83 | 1022.0 |
| 20260506182532 | 16 | 318 | 4.8 | 4.8 | 0.00 | 0.00 | 0.00 | 82 | 1022.0 |
| 20260506182029 | 16 | 302 | 0.0 | 0.0 | 0.00 | 0.00 | 0.00 | 83 | 1022.1 |
| 20260506181527 | 16 | 290 | 0.0 | 1.6 | 0.00 | 0.00 | 0.00 | 83 | 1022.0 |
| 20260506181023 | 16 | 310 | 0.0 | 0.0 | 0.00 | 0.00 | 0.00 | 83 | 1022.0 |
| 20260506180520 | 15 | 306 | 0.0 | 0.0 | 0.00 | 0.00 | 0.00 | 84 | 1022.2 |
| 20260506180016 | 15 | 325 | 1.6 | 1.6 | 0.00 | 0.00 | 0.00 | 85 | 1022.0 |
| 20260506175513 | 15 | 331 | 4.8 | 4.8 | 0.00 | 0.00 | 0.00 | 85 | 1022.2 |
| 20260506175009 | 15 | 314 | 0.0 | 1.6 | 0.00 | 0.00 | 0.00 | 85 | 1021.8 |
| 20260506174508 | 15 | 307 | 1.6 | 3.2 | 0.00 | 0.00 | 0.00 | 85 | 1022.0 |
| 20260506174004 | 15 | 303 | 1.6 | 3.2 | 0.00 | 0.00 | 0.00 | 84 | 1021.9 |
| 20260506173502 | 15 | 312 | 1.6 | 1.6 | 0.00 | 0.00 | 0.00 | 85 | 1021.9 |
| 20260506172958 | 15 | 318 | 0.0 | 0.0 | 0.00 | 0.00 | 0.00 | 86 | 1021.8 |
| 20260506172456 | 15 | 317 | 0.0 | 0.0 | 0.00 | 0.00 | 0.00 | 85 | 1021.9 |
| 20260506171952 | 15 | 314 | 0.0 | 0.0 | 0.00 | 0.00 | 0.00 | 84 | 1021.9 |
| 20260506171449 | 15 | 309 | 1.6 | 1.6 | 0.00 | 0.00 | 0.00 | 85 | 1022.0 |
| 20260506170947 | 15 | 307 | 0.0 | 0.0 | 0.00 | 0.00 | 0.00 | 85 | 1021.8 |
| 20260506170443 | 14 | 300 | 0.0 | 0.0 | 0.00 | 0.00 | 0.00 | 86 | 1021.9 |
| 20260506165936 | 14 | 305 | 0.0 | 1.6 | 0.00 | 0.00 | 0.00 | 86 | 1022.0 |
| 20260506165435 | 15 | 309 | 1.6 | 1.6 | 0.00 | 0.00 | 0.00 | 85 | 1022.0 |
| 20260506164930 | 15 | 303 | 0.0 | 0.0 | 0.00 | 0.00 | 0.00 | 85 | 1021.8 |
| 20260506164427 | 15 | 301 | 0.0 | 0.0 | 0.00 | 0.00 | 0.00 | 85 | 1021.9 |
| 20260506163926 | 15 | 311 | 1.6 | 1.6 | 0.00 | 0.00 | 0.00 | 85 | 1021.8 |
| 20260506163425 | 15 | 313 | 0.0 | 0.0 | 0.00 | 0.00 | 0.00 | 85 | 1021.9 |
| 20260506162915 | 15 | 310 | 0.0 | 0.0 | 0.00 | 0.00 | 0.00 | 84 | 1021.8 |
| 20260506162413 | 15 | 308 | 1.6 | 1.6 | 0.00 | 0.00 | 0.00 | 84 | 1021.5 |
| 20260506161910 | 14 | 299 | 0.0 | 0.0 | 0.00 | 0.00 | 0.00 | 85 | 1021.5 |
| 20260506161408 | 14 | 325 | 0.0 | 1.6 | 0.00 | 0.00 | 0.00 | 85 | 1021.8 |
| 20260506160905 | 14 | 313 | 0.0 | 0.0 | 0.00 | 0.00 | 0.00 | 84 | 1021.8 |
| 20260506160402 | 14 | 326 | 0.0 | 0.0 | 0.00 | 0.00 | 0.00 | 85 | 1021.2 |
| 20260506155900 | 15 | 304 | 0.0 | 0.0 | 0.00 | 0.00 | 0.00 | 84 | 1021.3 |
| 20260506155357 | 15 | 311 | 0.0 | 0.0 | 0.00 | 0.00 | 0.00 | 84 | 1021.3 |
| 20260506153519 | 13 | 278 | 1.6 | 1.6 | 0.00 | 0.00 | 0.00 | 88 | 1021.3 |
| 20260506153017 | 13 | 5 | 1.6 | 1.6 | 0.00 | 0.00 | 0.00 | 88 | 1022.0 |
| 20260506152513 | 13 | 304 | 0.0 | 1.6 | 0.00 | 0.00 | 0.00 | 88 | 1021.8 |
| 20260506152012 | 13 | 328 | 0.0 | 1.6 | 0.00 | 0.00 | 0.00 | 89 | 1021.9 |
| 20260506151509 | 13 | 309 | 0.0 | 0.0 | 0.00 | 0.00 | 0.00 | 89 | 1021.9 |
| 20260506151006 | 13 | 307 | 0.0 | 1.6 | 0.00 | 0.00 | 0.00 | 88 | 1021.9 |
| 20260506150502 | 13 | 308 | 0.0 | 0.0 | 0.00 | 0.00 | 0.00 | 88 | 1021.8 |
| 20260506145959 | 13 | 316 | 0.0 | 0.0 | 0.00 | 0.00 | 0.00 | 88 | 1021.8 |
| 20260506145455 | 13 | 313 | 0.0 | 0.0 | 0.00 | 0.00 | 0.00 | 88 | 1021.5 |
| 20260506144953 | 13 | 293 | 1.6 | 1.6 | 0.00 | 0.00 | 0.00 | 88 | 1021.4 |
| 20260506144450 | 13 | 306 | 0.0 | 0.0 | 0.00 | 0.00 | 0.00 | 89 | 1021.8 |
| 20260506143948 | 13 | 308 | 0.0 | 0.0 | 0.00 | 0.00 | 0.00 | 89 | 1021.6 |
| 20260506143444 | 13 | 291 | 0.0 | 0.0 | 0.00 | 0.00 | 0.00 | 89 | 1021.1 |
| 20260506142943 | 13 | 292 | 0.0 | 0.0 | 0.00 | 0.00 | 0.00 | 89 | 1021.3 |
| 20260506142441 | 13 | 306 | 1.6 | 1.6 | 0.00 | 0.00 | 0.00 | 88 | 1021.1 |
| 20260506141939 | 13 | 354 | 1.6 | 1.6 | 0.00 | 0.00 | 0.00 | 88 | 1020.9 |
| 20260506141436 | 13 | 311 | 0.0 | 0.0 | 0.00 | 0.00 | 0.00 | 89 | 1020.8 |
| 20260506140935 | 13 | 310 | 0.0 | 0.0 | 0.00 | 0.00 | 0.00 | 89 | 1020.8 |
| 20260506140431 | 13 | 310 | 0.0 | 0.0 | 0.00 | 0.00 | 0.00 | 89 | 1021.1 |
| 20260506135928 | 13 | 318 | 0.0 | 0.0 | 0.00 | 0.00 | 0.00 | 90 | 1020.8 |
| 20260506135425 | 13 | 318 | 0.0 | 0.0 | 0.00 | 0.00 | 0.00 | 90 | 1020.9 |
| 20260506134922 | 13 | 318 | 0.0 | 0.0 | 0.00 | 0.00 | 0.00 | 90 | 1020.7 |
| 20260506134417 | 13 | 317 | 0.0 | 0.0 | 0.00 | 0.00 | 0.00 | 90 | 1020.9 |
| 20260506133915 | 13 | 317 | 0.0 | 0.0 | 0.00 | 0.00 | 0.00 | 90 | 1020.5 |
| 20260506133411 | 13 | 317 | 0.0 | 0.0 | 0.00 | 0.00 | 0.00 | 90 | 1020.5 |
| 20260506132908 | 13 | 317 | 0.0 | 0.0 | 0.00 | 0.00 | 0.00 | 90 | 1020.6 |
| 20260506132405 | 13 | 318 | 0.0 | 0.0 | 0.00 | 0.00 | 0.00 | 90 | 1020.7 |
| 20260506131904 | 13 | 318 | 1.6 | 1.6 | 0.00 | 0.00 | 0.00 | 90 | 1020.7 |
| 20260506131359 | 13 | 316 | 0.0 | 0.0 | 0.00 | 0.00 | 0.00 | 91 | 1020.5 |
| 20260506130856 | 13 | 304 | 0.0 | 0.0 | 0.00 | 0.00 | 0.00 | 90 | 1020.5 |
| 20260506130352 | 13 | 304 | 0.0 | 0.0 | 0.00 | 0.00 | 0.00 | 90 | 1020.5 |
| 20260506125851 | 13 | 304 | 0.0 | 0.0 | 0.00 | 0.00 | 0.00 | 90 | 1020.4 |
| 20260506125349 | 13 | 304 | 0.0 | 0.0 | 0.00 | 0.00 | 0.00 | 90 | 1020.4 |
| 20260506124847 | 13 | 303 | 0.0 | 0.0 | 0.00 | 0.00 | 0.00 | 90 | 1020.4 |
| 20260506124343 | 13 | 305 | 0.0 | 0.0 | 0.00 | 0.00 | 0.00 | 90 | 1020.2 |
| 20260506123841 | 13 | 318 | 0.0 | 0.0 | 0.00 | 0.00 | 0.00 | 90 | 1020.3 |
| 20260506123339 | 13 | 301 | 0.0 | 0.0 | 0.00 | 0.00 | 0.00 | 90 | 1020.4 |
| 20260506122836 | 13 | 301 | 0.0 | 0.0 | 0.00 | 0.00 | 0.00 | 90 | 1020.2 |
| 20260506122333 | 13 | 302 | 0.0 | 0.0 | 0.00 | 0.00 | 0.00 | 89 | 1020.5 |
| 20260506121831 | 13 | 303 | 0.0 | 0.0 | 0.00 | 0.00 | 0.00 | 89 | 1020.2 |
| 20260506121328 | 13 | 300 | 0.0 | 0.0 | 0.00 | 0.00 | 0.00 | 89 | 1020.5 |
| 20260506120825 | 13 | 298 | 0.0 | 0.0 | 0.00 | 0.00 | 0.00 | 89 | 1020.3 |
| 20260506120323 | 13 | 303 | 0.0 | 0.0 | 0.00 | 0.00 | 0.00 | 89 | 1020.4 |
| 20260506115820 | 13 | 301 | 0.0 | 0.0 | 0.00 | 0.00 | 0.00 | 89 | 1020.1 |
| 20260506115318 | 13 | 301 | 0.0 | 0.0 | 0.00 | 0.00 | 0.00 | 89 | 1020.0 |
| 20260506114816 | 13 | 304 | 0.0 | 0.0 | 0.00 | 0.00 | 0.00 | 88 | 1019.9 |
| 20260506114314 | 13 | 323 | 1.6 | 1.6 | 0.00 | 0.00 | 0.00 | 88 | 1019.9 |
| 20260506113812 | 13 | 317 | 0.0 | 0.0 | 0.00 | 0.00 | 0.00 | 88 | 1019.8 |
| 20260506113309 | 13 | 299 | 0.0 | 1.6 | 0.00 | 0.00 | 0.00 | 88 | 1019.9 |
| 20260506112805 | 13 | 318 | 0.0 | 0.0 | 0.00 | 0.00 | 0.00 | 88 | 1020.0 |